Time,TemperatureF,DewpointF,PressureIn,WindDirection,WindDirectionDegrees,WindSpeedMPH,WindSpeedGustMPH,Humidity,HourlyPrecipIn,Conditions,Clouds,dailyrainin,SolarRadiationWatts/m^2,SoftwareType,DateUTC
2013-07-16 00:01:00,73.2,71.1,30.23,NW,307,0.0,0.0,93,0.00,RA,,0.00,0.0,WeatherDisplay:10.37,2013-07-16 05:01:00,
2013-07-16 00:06:00,73.2,71.4,30.23,NW,307,0.0,0.0,94,0.00,RA,,0.00,0.0,WeatherDisplay:10.37,2013-07-16 05:06:00,
2013-07-16 00:11:00,73.2,71.4,30.23,NW,307,0.0,0.0,94,0.00,CLR,,0.00,0.0,WeatherDisplay:10.37,2013-07-16 05:11:00,
2013-07-16 00:16:00,73.0,71.5,30.23,NW,307,0.0,0.0,95,0.00,CLR,,0.00,0.0,WeatherDisplay:10.37,2013-07-16 05:16:00,
2013-07-16 00:21:00,73.0,71.5,30.23,NW,307,0.0,0.0,95,0.00,CLR,,0.00,0.0,WeatherDisplay:10.37,2013-07-16 05:21:00,
2013-07-16 00:26:00,73.0,71.8,30.23,NW,307,0.0,0.0,96,0.00,CLR,,0.00,0.0,WeatherDisplay:10.37,2013-07-16 05:26:00,
2013-07-16 00:31:00,73.0,71.8,30.23,SSW,210,0.0,0.0,96,0.00,CLR,,0.00,0.0,WeatherDisplay:10.37,2013-07-16 05:31:00,
2013-07-16 00:36:00,73.0,72.1,30.23,SW,226,0.0,0.0,97,0.00,CLR,,0.00,0.0,WeatherDisplay:10.37,2013-07-16 05:36:00,
2013-07-16 00:41:00,73.0,72.1,30.23,SSE,162,0.0,0.0,97,0.00,CLR,,0.00,0.0,WeatherDisplay:10.37,2013-07-16 05:41:00,
2013-07-16 00:46:00,72.9,72.0,30.23,SSE,162,0.0,0.0,97,0.00,CLR,,0.00,0.0,WeatherDisplay:10.37,2013-07-16 05:46:00,
2013-07-16 00:51:00,72.9,72.3,30.23,South,190,0.0,0.0,98,0.00,CLR,,0.00,0.0,WeatherDisplay:10.37,2013-07-16 05:51:00,
2013-07-16 01:16:00,72.7,72.4,30.23,SSW,212,0.0,0.0,99,0.00,CLR,,0.00,0.0,WeatherDisplay:10.37,2013-07-16 06:16:00,
2013-07-16 01:21:00,72.5,72.2,30.23,SSW,212,0.0,0.0,99,0.00,CLR,,0.00,0.0,WeatherDisplay:10.37,2013-07-16 06:21:00,
2013-07-16 01:26:00,72.5,72.5,30.23,SSW,209,0.0,0.0,100,0.00,CLR,,0.00,0.0,WeatherDisplay:10.37,2013-07-16 06:26:00,
2013-07-16 01:31:00,72.5,72.5,30.23,SW,218,0.0,0.0,100,0.00,CLR,,0.00,0.0,WeatherDisplay:10.37,2013-07-16 06:31:00,
2013-07-16 01:36:00,72.5,72.5,30.23,SW,220,0.0,0.0,100,0.00,CLR,,0.00,0.0,WeatherDisplay:10.37,2013-07-16 06:36:00,
2013-07-16 01:41:00,72.3,72.3,30.23,SSW,199,0.0,0.0,100,0.00,CLR,,0.00,0.0,WeatherDisplay:10.37,2013-07-16 06:41:00,
2013-07-16 01:46:00,72.3,72.3,30.23,WSW,249,2.3,0.0,100,0.00,CLR,,0.00,0.0,WeatherDisplay:10.37,2013-07-16 06:46:00,
2013-07-16 01:51:00,72.3,72.3,30.23,SW,231,0.0,0.0,100,0.00,CLR,,0.00,0.0,WeatherDisplay:10.37,2013-07-16 06:51:00,
2013-07-16 01:56:00,72.1,72.1,30.23,SW,214,0.0,0.0,100,0.00,CLR,,0.00,0.0,WeatherDisplay:10.37,2013-07-16 06:56:00,
2013-07-16 02:01:00,72.0,72.0,30.23,South,188,0.0,0.0,100,0.00,CLR,,0.00,0.0,WeatherDisplay:10.37,2013-07-16 07:01:00,
2013-07-16 02:06:00,72.0,72.0,30.23,SSW,194,2.3,0.0,100,0.00,CLR,,0.00,0.0,WeatherDisplay:10.37,2013-07-16 07:06:00,
2013-07-16 02:11:00,71.8,71.8,30.23,SW,224,0.0,0.0,100,0.00,CLR,,0.00,0.0,WeatherDisplay:10.37,2013-07-16 07:11:00,
2013-07-16 02:16:00,71.8,71.8,30.23,SW,231,0.0,0.0,100,0.00,CLR,,0.00,0.0,WeatherDisplay:10.37,2013-07-16 07:16:00,
2013-07-16 02:21:00,71.6,71.6,30.23,SW,219,3.5,3.5,100,0.00,CLR,,0.00,0.0,WeatherDisplay:10.37,2013-07-16 07:21:00,
2013-07-16 02:26:00,71.6,71.6,30.23,SSW,205,3.5,0.0,100,0.00,CLR,,0.00,0.0,WeatherDisplay:10.37,2013-07-16 07:26:00,
2013-07-16 02:31:00,71.4,71.4,30.23,SSW,210,3.5,0.0,100,0.00,CLR,,0.00,0.0,WeatherDisplay:10.37,2013-07-16 07:31:00,
2013-07-16 02:36:00,71.4,71.4,30.23,SSW,202,0.0,0.0,100,0.00,CLR,,0.00,0.0,WeatherDisplay:10.37,2013-07-16 07:36:00,
2013-07-16 02:41:00,71.4,71.4,30.23,SW,235,2.9,0.0,100,0.00,CLR,,0.00,0.0,WeatherDisplay:10.37,2013-07-16 07:41:00,
2013-07-16 02:46:00,71.4,71.4,30.23,SSW,203,0.0,0.0,100,0.00,CLR,,0.00,0.0,WeatherDisplay:10.37,2013-07-16 07:46:00,
2013-07-16 02:51:00,71.2,71.2,30.23,SSW,211,0.0,0.0,100,0.00,CLR,,0.00,0.0,WeatherDisplay:10.37,2013-07-16 07:51:00,
2013-07-16 02:56:00,71.1,71.1,30.23,South,186,3.5,3.5,100,0.00,CLR,,0.00,0.0,WeatherDisplay:10.37,2013-07-16 07:56:00,
2013-07-16 03:01:00,71.1,71.1,30.23,SSW,200,3.5,0.0,100,0.00,CLR,,0.00,0.0,WeatherDisplay:10.37,2013-07-16 08:01:00,
2013-07-16 03:06:00,70.9,70.9,30.23,SSW,202,0.0,0.0,100,0.00,SCT,,0.00,0.0,WeatherDisplay:10.37,2013-07-16 08:06:00,
2013-07-16 03:11:00,70.9,70.9,30.23,SSW,196,4.6,0.0,100,0.00,SCT,,0.00,0.0,WeatherDisplay:10.37,2013-07-16 08:11:00,
2013-07-16 03:16:00,70.9,70.9,30.23,SSW,196,0.0,0.0,100,0.00,SCT,,0.00,0.0,WeatherDisplay:10.37,2013-07-16 08:16:00,
2013-07-16 03:21:00,70.9,70.9,30.23,SW,221,0.0,0.0,100,0.00,SCT,,0.00,0.0,WeatherDisplay:10.37,2013-07-16 08:21:00,
2013-07-16 03:26:00,70.7,70.7,30.23,SW,217,0.0,0.0,100,0.00,SCT,,0.00,0.0,WeatherDisplay:10.37,2013-07-16 08:26:00,
2013-07-16 03:31:00,70.7,70.7,30.23,WSW,245,0.0,0.0,100,0.00,SCT,,0.00,0.0,WeatherDisplay:10.37,2013-07-16 08:31:00,
2013-07-16 03:36:00,70.5,70.5,30.23,WSW,245,0.0,0.0,100,0.00,SCT,,0.00,0.0,WeatherDisplay:10.37,2013-07-16 08:36:00,
2013-07-16 03:41:00,70.5,70.5,30.23,WSW,245,0.0,0.0,100,0.00,SCT,,0.00,0.0,WeatherDisplay:10.37,2013-07-16 08:41:00,
2013-07-16 03:46:00,70.3,70.3,30.23,WSW,245,0.0,0.0,100,0.00,SCT,,0.00,0.0,WeatherDisplay:10.37,2013-07-16 08:46:00,
2013-07-16 03:51:00,70.2,70.2,30.23,WSW,245,0.0,0.0,100,0.00,SCT,,0.00,0.0,WeatherDisplay:10.37,2013-07-16 08:51:00,
2013-07-16 03:56:00,70.2,70.2,30.23,WSW,245,0.0,0.0,100,0.00,CLR,,0.00,0.0,WeatherDisplay:10.37,2013-07-16 08:56:00,
2013-07-16 04:01:00,70.2,70.2,30.23,WSW,245,0.0,0.0,100,0.00,CLR,,0.00,0.0,WeatherDisplay:10.37,2013-07-16 09:01:00,
2013-07-16 04:06:00,70.2,70.2,30.23,WSW,245,0.0,0.0,100,0.00,CLR,,0.00,0.0,WeatherDisplay:10.37,2013-07-16 09:06:00,
2013-07-16 04:11:00,69.8,69.8,30.23,WSW,245,0.0,0.0,100,0.00,CLR,,0.00,0.0,WeatherDisplay:10.37,2013-07-16 09:11:00,
2013-07-16 04:16:00,69.6,69.6,30.23,WSW,245,0.0,0.0,100,0.00,CLR,,0.00,0.0,WeatherDisplay:10.37,2013-07-16 09:16:00,
2013-07-16 04:21:00,69.6,69.6,30.23,SSW,208,0.0,0.0,100,0.00,CLR,,0.00,0.0,WeatherDisplay:10.37,2013-07-16 09:21:00,
2013-07-16 04:25:00,69.6,69.6,30.23,SSW,208,0.0,0.0,100,0.00,CLR,,0.00,0.0,WeatherDisplay:10.37,2013-07-16 09:25:00,
2013-07-16 04:30:00,69.6,69.6,30.23,SSW,208,0.0,0.0,100,0.00,CLR,,0.00,0.0,WeatherDisplay:10.37,2013-07-16 09:30:00,
2013-07-16 04:35:00,69.4,69.4,30.23,SSW,208,0.0,0.0,100,0.00,CLR,,0.00,0.0,WeatherDisplay:10.37,2013-07-16 09:35:00,
2013-07-16 04:40:00,69.4,69.4,30.23,SSW,208,0.0,0.0,100,0.00,CLR,,0.00,0.0,WeatherDisplay:10.37,2013-07-16 09:40:00,
2013-07-16 04:45:00,69.3,69.3,30.23,SSW,208,0.0,0.0,100,0.00,CLR,,0.00,0.0,WeatherDisplay:10.37,2013-07-16 09:45:00,
2013-07-16 04:50:00,69.3,69.3,30.23,SSW,208,0.0,0.0,100,0.00,CLR,,0.00,0.0,WeatherDisplay:10.37,2013-07-16 09:50:00,
2013-07-16 04:55:00,69.1,69.1,30.23,SSW,208,0.0,0.0,100,0.00,SCT,,0.00,0.0,WeatherDisplay:10.37,2013-07-16 09:55:00,
2013-07-16 05:00:00,69.1,69.1,30.23,SSW,208,0.0,0.0,100,0.00,SCT,,0.00,0.0,WeatherDisplay:10.37,2013-07-16 10:00:00,
2013-07-16 05:05:00,69.1,69.1,30.23,SSW,208,0.0,0.0,100,0.00,BKN,,0.00,0.0,WeatherDisplay:10.37,2013-07-16 10:05:00,
2013-07-16 05:10:00,69.1,69.1,30.23,WSW,237,0.0,0.0,100,0.00,BKN,,0.00,0.0,WeatherDisplay:10.37,2013-07-16 10:10:00,
2013-07-16 05:15:00,69.1,69.1,30.23,WSW,237,0.0,0.0,100,0.00,BKN,,0.00,0.0,WeatherDisplay:10.37,2013-07-16 10:15:00,
2013-07-16 05:20:00,69.1,69.1,30.23,WSW,237,0.0,0.0,100,0.00,BKN,,0.00,0.0,WeatherDisplay:10.37,2013-07-16 10:20:00,
2013-07-16 05:25:00,69.1,69.1,30.23,WSW,237,0.0,0.0,100,0.00,BKN,,0.00,0.0,WeatherDisplay:10.37,2013-07-16 10:25:00,
2013-07-16 05:30:00,69.3,69.3,30.23,SSW,197,0.0,0.0,100,0.00,BKN,,0.00,0.0,WeatherDisplay:10.37,2013-07-16 10:30:00,
2013-07-16 05:35:00,69.4,69.4,30.23,SW,223,0.0,0.0,100,0.00,BKN,,0.00,0.0,WeatherDisplay:10.37,2013-07-16 10:35:00,
2013-07-16 05:40:00,69.6,69.6,30.23,South,186,0.0,0.0,100,0.00,BKN,,0.00,0.0,WeatherDisplay:10.37,2013-07-16 10:40:00,
2013-07-16 05:45:00,69.8,69.8,30.23,SW,217,0.0,0.0,100,0.00,BKN,,0.00,0.0,WeatherDisplay:10.37,2013-07-16 10:45:00,
2013-07-16 05:50:00,70.0,70.0,30.23,SW,218,0.0,0.0,100,0.00,BKN,,0.00,0.0,WeatherDisplay:10.37,2013-07-16 10:50:00,
2013-07-16 05:55:00,70.0,70.0,30.23,SSW,200,0.0,0.0,100,0.00,SCT,,0.00,0.0,WeatherDisplay:10.37,2013-07-16 10:55:00,
2013-07-16 06:00:00,70.0,70.0,30.23,SW,224,0.0,0.0,100,0.00,SCT,,0.00,0.0,WeatherDisplay:10.37,2013-07-16 11:00:00,
2013-07-16 06:05:00,70.2,70.2,30.23,South,174,0.0,0.0,100,0.00,CLR,,0.00,0.0,WeatherDisplay:10.37,2013-07-16 11:05:00,
2013-07-16 06:10:00,70.2,70.2,30.23,SSW,200,0.0,0.0,100,0.00,CLR,,0.00,0.0,WeatherDisplay:10.37,2013-07-16 11:10:00,
2013-07-16 06:15:00,70.3,70.3,30.23,West,260,6.9,0.0,100,0.00,CLR,,0.00,0.0,WeatherDisplay:10.37,2013-07-16 11:15:00,
2013-07-16 06:20:00,70.3,70.3,30.23,SW,223,0.0,0.0,100,0.00,CLR,,0.00,0.0,WeatherDisplay:10.37,2013-07-16 11:20:00,
2013-07-16 06:25:00,70.5,70.5,30.23,SSW,206,0.0,0.0,100,0.00,CLR,,0.00,0.0,WeatherDisplay:10.37,2013-07-16 11:25:00,
2013-07-16 06:30:00,70.7,70.7,30.23,SW,223,3.5,0.0,100,0.00,CLR,,0.00,0.0,WeatherDisplay:10.37,2013-07-16 11:30:00,
2013-07-16 06:35:00,70.9,70.9,30.23,SSW,211,0.0,0.0,100,0.00,CLR,,0.00,0.0,WeatherDisplay:10.37,2013-07-16 11:35:00,
2013-07-16 06:40:00,70.9,70.9,30.23,SSW,208,5.8,0.0,100,0.00,CLR,,0.00,0.0,WeatherDisplay:10.37,2013-07-16 11:40:00,
2013-07-16 06:45:00,70.9,70.9,30.23,WSW,254,3.5,0.0,100,0.00,CLR,,0.00,0.0,WeatherDisplay:10.37,2013-07-16 11:45:00,
2013-07-16 06:50:00,70.9,70.9,30.23,WSW,242,5.8,0.0,100,0.00,CLR,,0.00,0.0,WeatherDisplay:10.37,2013-07-16 11:50:00,
2013-07-16 06:55:00,70.9,70.9,30.23,SSW,196,3.5,3.5,100,0.00,CLR,,0.00,0.0,WeatherDisplay:10.37,2013-07-16 11:55:00,
2013-07-16 07:00:00,70.9,70.9,30.26,WSW,239,3.5,3.5,100,0.00,CLR,,0.00,0.0,WeatherDisplay:10.37,2013-07-16 12:00:00,
2013-07-16 07:05:00,70.9,70.9,30.26,SW,222,4.6,4.6,100,0.00,CLR,,0.00,0.0,WeatherDisplay:10.37,2013-07-16 12:05:00,
2013-07-16 07:10:00,70.9,70.9,30.26,SSW,213,0.0,0.0,100,0.00,CLR,,0.00,0.0,WeatherDisplay:10.37,2013-07-16 12:10:00,
2013-07-16 07:15:00,70.9,70.9,30.26,SSW,209,2.3,0.0,100,0.00,CLR,,0.00,0.0,WeatherDisplay:10.37,2013-07-16 12:15:00,
2013-07-16 07:20:00,70.9,70.9,30.26,SW,228,3.5,0.0,100,0.00,CLR,,0.00,0.0,WeatherDisplay:10.37,2013-07-16 12:20:00,
2013-07-16 07:25:00,70.9,70.9,30.26,WSW,238,4.6,0.0,100,0.00,CLR,,0.00,0.0,WeatherDisplay:10.37,2013-07-16 12:25:00,
2013-07-16 07:30:00,70.9,70.9,30.26,WSW,238,0.0,0.0,100,0.00,CLR,,0.00,0.0,WeatherDisplay:10.37,2013-07-16 12:30:00,
2013-07-16 07:35:00,70.9,70.9,30.26,SW,232,4.6,0.0,100,0.00,CLR,,0.00,0.0,WeatherDisplay:10.37,2013-07-16 12:35:00,
2013-07-16 07:40:00,70.9,70.9,30.26,SW,215,2.3,2.3,100,0.00,CLR,,0.00,0.0,WeatherDisplay:10.37,2013-07-16 12:40:00,
2013-07-16 07:45:00,70.9,70.9,30.26,SW,221,3.5,3.5,100,0.00,CLR,,0.00,0.0,WeatherDisplay:10.37,2013-07-16 12:45:00,
2013-07-16 07:50:00,70.9,70.9,30.26,SSW,202,3.3,0.0,100,0.00,CLR,,0.00,0.0,WeatherDisplay:10.37,2013-07-16 12:50:00,
2013-07-16 07:55:00,70.9,70.9,30.26,South,186,0.0,0.0,100,0.00,CLR,,0.00,0.0,WeatherDisplay:10.37,2013-07-16 12:55:00,
2013-07-16 08:00:00,70.9,70.9,30.26,SSW,200,3.5,0.0,100,0.00,CLR,,0.00,0.0,WeatherDisplay:10.37,2013-07-16 13:00:00,
2013-07-16 08:05:00,70.9,70.9,30.26,SSW,205,0.0,0.0,100,0.00,CLR,,0.00,0.0,WeatherDisplay:10.37,2013-07-16 13:05:00,
2013-07-16 08:10:00,70.9,70.9,30.26,SSW,209,5.8,5.8,100,0.00,CLR,,0.00,0.0,WeatherDisplay:10.37,2013-07-16 13:10:00,
2013-07-16 08:15:00,70.9,70.9,30.26,WSW,243,6.9,6.9,100,0.00,CLR,,0.00,0.0,WeatherDisplay:10.37,2013-07-16 13:15:00,
2013-07-16 08:20:00,70.9,70.9,30.26,SSW,196,6.9,6.9,100,0.00,CLR,,0.00,0.0,WeatherDisplay:10.37,2013-07-16 13:20:00,
2013-07-16 08:25:00,70.9,70.9,30.26,SSW,212,5.8,5.8,100,0.00,CLR,,0.00,0.0,WeatherDisplay:10.37,2013-07-16 13:25:00,
2013-07-16 08:30:00,70.9,70.9,30.26,South,188,3.5,3.5,100,0.00,CLR,,0.00,0.0,WeatherDisplay:10.37,2013-07-16 13:30:00,
2013-07-16 08:35:00,70.9,70.9,30.26,SSW,204,5.8,5.8,100,0.00,CLR,,0.00,0.0,WeatherDisplay:10.37,2013-07-16 13:35:00,
2013-07-16 08:40:00,70.9,70.9,30.26,SW,214,2.3,2.3,100,0.00,CLR,,0.00,0.0,WeatherDisplay:10.37,2013-07-16 13:40:00,
2013-07-16 08:45:00,70.9,70.9,30.26,SSW,204,5.8,5.8,100,0.00,CLR,,0.00,0.0,WeatherDisplay:10.37,2013-07-16 13:45:00,
2013-07-16 08:50:00,80.1,74.1,30.26,South,182,4.6,4.6,82,0.00,CLR,,0.00,0.0,WeatherDisplay:10.37,2013-07-16 13:50:00,
2013-07-16 08:55:00,80.1,73.3,30.26,SSW,210,6.9,6.9,80,0.00,CLR,,0.00,0.0,WeatherDisplay:10.37,2013-07-16 13:55:00,
2013-07-16 09:00:00,80.2,73.1,30.26,SSW,194,4.6,4.6,79,0.00,CLR,,0.00,0.0,WeatherDisplay:10.37,2013-07-16 14:00:00,
2013-07-16 09:05:00,80.4,72.9,30.26,SW,235,5.8,5.8,78,0.00,CLR,,0.00,0.0,WeatherDisplay:10.37,2013-07-16 14:05:00,
2013-07-16 09:10:00,80.6,72.7,30.26,South,185,3.5,0.0,77,0.00,CLR,,0.00,0.0,WeatherDisplay:10.37,2013-07-16 14:10:00,
2013-07-16 09:15:00,80.8,71.7,30.26,SSW,211,0.0,0.0,74,0.00,CLR,,0.00,0.0,WeatherDisplay:10.37,2013-07-16 14:15:00,
2013-07-16 09:20:00,81.1,72.1,30.26,SW,231,3.5,3.5,74,0.00,CLR,,0.00,0.0,WeatherDisplay:10.37,2013-07-16 14:20:00,
2013-07-16 09:25:00,81.1,71.7,30.26,SSW,210,2.4,0.0,73,0.00,CLR,,0.00,0.0,WeatherDisplay:10.37,2013-07-16 14:25:00,
2013-07-16 09:30:00,81.1,71.7,30.26,West,266,3.5,3.5,73,0.00,CLR,,0.00,0.0,WeatherDisplay:10.37,2013-07-16 14:30:00,
2013-07-16 09:35:00,81.1,71.7,30.26,WNW,297,3.5,0.0,73,0.00,SCT,,0.00,0.0,WeatherDisplay:10.37,2013-07-16 14:35:00,
2013-07-16 09:40:00,81.1,71.7,30.26,SSW,196,5.8,5.8,73,0.00,SCT,,0.00,0.0,WeatherDisplay:10.37,2013-07-16 14:40:00,
2013-07-16 09:45:00,82.2,71.5,30.26,SSE,165,9.2,9.2,70,0.00,SCT,,0.00,0.0,WeatherDisplay:10.37,2013-07-16 14:45:00,
2013-07-16 09:50:00,82.2,71.5,30.26,SW,218,3.5,3.6,70,0.00,SCT,,0.00,0.0,WeatherDisplay:10.37,2013-07-16 14:50:00,
2013-07-16 09:55:00,82.2,71.5,30.26,NNW,335,4.6,4.6,70,0.00,SCT,,0.00,0.0,WeatherDisplay:10.37,2013-07-16 14:55:00,
2013-07-16 10:00:00,82.2,71.5,30.26,SSW,194,5.8,5.8,70,0.00,SCT,,0.00,0.0,WeatherDisplay:10.37,2013-07-16 15:00:00,
2013-07-16 10:05:00,82.2,71.5,30.26,SW,216,3.5,0.0,70,0.00,SCT,,0.00,0.0,WeatherDisplay:10.37,2013-07-16 15:05:00,
2013-07-16 10:10:00,82.2,71.5,30.26,SW,234,4.6,4.6,70,0.00,SCT,,0.00,0.0,WeatherDisplay:10.37,2013-07-16 15:10:00,
2013-07-16 10:15:00,82.2,71.5,30.26,NE,47,3.5,3.5,70,0.00,SCT,,0.00,0.0,WeatherDisplay:10.37,2013-07-16 15:15:00,
2013-07-16 10:20:00,84.0,70.5,30.26,WSW,249,2.3,0.0,64,0.00,SCT,,0.00,0.0,WeatherDisplay:10.37,2013-07-16 15:20:00,
2013-07-16 10:25:00,83.5,70.9,30.26,South,180,3.5,3.5,66,0.00,SCT,,0.00,0.0,WeatherDisplay:10.37,2013-07-16 15:25:00,
2013-07-16 10:30:00,83.5,70.9,30.26,WSW,252,5.3,0.0,66,0.00,SCT,,0.00,0.0,WeatherDisplay:10.37,2013-07-16 15:30:00,
2013-07-16 10:35:00,84.0,71.0,30.26,West,278,5.8,5.8,65,0.00,BKN,,0.00,0.0,WeatherDisplay:10.37,2013-07-16 15:35:00,
2013-07-16 10:40:00,84.2,71.2,30.26,WSW,237,5.8,5.8,65,0.00,BKN,,0.00,0.0,WeatherDisplay:10.37,2013-07-16 15:40:00,
2013-07-16 10:45:00,85.1,71.1,30.26,SSW,208,6.9,6.9,63,0.00,BKN,,0.00,0.0,WeatherDisplay:10.37,2013-07-16 15:45:00,
2013-07-16 10:50:00,85.6,71.6,30.26,SW,229,5.8,5.8,63,0.00,BKN,,0.00,0.0,WeatherDisplay:10.37,2013-07-16 15:50:00,
2013-07-16 10:55:00,86.2,71.6,30.26,SSW,203,8.1,8.1,62,0.00,BKN,,0.00,0.0,WeatherDisplay:10.37,2013-07-16 15:55:00,
2013-07-16 11:00:00,86.7,71.7,30.26,SW,220,4.6,4.6,61,0.00,BKN,,0.00,0.0,WeatherDisplay:10.37,2013-07-16 16:00:00,
2013-07-16 11:05:00,86.7,71.7,30.26,NW,325,3.5,3.5,61,0.00,SCT,,0.00,0.0,WeatherDisplay:10.37,2013-07-16 16:05:00,
2013-07-16 11:10:00,86.9,70.3,30.26,NNW,338,0.0,0.0,58,0.00,SCT,,0.00,0.0,WeatherDisplay:10.37,2013-07-16 16:10:00,
2013-07-16 11:15:00,85.3,69.3,30.26,SSW,209,5.8,5.8,59,0.00,SCT,,0.00,0.0,WeatherDisplay:10.37,2013-07-16 16:15:00,
2013-07-16 11:20:00,85.1,69.7,30.26,WSW,240,4.6,0.0,60,0.00,SCT,,0.00,0.0,WeatherDisplay:10.37,2013-07-16 16:20:00,
2013-07-16 11:25:00,85.8,70.3,30.26,SSW,199,5.8,5.8,60,0.00,SCT,,0.00,0.0,WeatherDisplay:10.37,2013-07-16 16:25:00,
2013-07-16 11:30:00,85.8,69.8,30.26,West,265,5.8,5.8,59,0.00,SCT,,0.00,0.0,WeatherDisplay:10.37,2013-07-16 16:30:00,
2013-07-16 11:35:00,86.4,70.3,30.26,ESE,105,3.5,0.0,59,0.00,BKN,,0.00,0.0,WeatherDisplay:10.37,2013-07-16 16:35:00,
2013-07-16 11:40:00,87.3,70.7,30.26,WSW,249,4.6,4.6,58,0.00,BKN,,0.00,0.0,WeatherDisplay:10.37,2013-07-16 16:40:00,
2013-07-16 11:45:00,88.0,70.8,30.26,NE,46,3.5,3.5,57,0.00,BKN,,0.00,0.0,WeatherDisplay:10.37,2013-07-16 16:45:00,
2013-07-16 11:50:00,87.8,69.6,30.26,SSW,210,2.3,0.0,55,0.00,BKN,,0.00,0.0,WeatherDisplay:10.37,2013-07-16 16:50:00,
2013-07-16 11:55:00,88.3,70.7,30.26,South,185,4.6,4.6,56,0.00,BKN,,0.00,0.0,WeatherDisplay:10.37,2013-07-16 16:55:00,
2013-07-16 12:00:00,89.4,71.7,30.26,SSW,203,6.2,6.2,56,0.00,BKN,,0.00,0.0,WeatherDisplay:10.37,2013-07-16 17:00:00,
2013-07-16 12:05:00,89.8,70.9,30.26,North,353,3.5,0.0,54,0.00,BKN,,0.00,0.0,WeatherDisplay:10.37,2013-07-16 17:05:00,
2013-07-16 12:10:00,89.4,70.6,30.26,SW,215,5.8,5.8,54,0.00,BKN,,0.00,0.0,WeatherDisplay:10.37,2013-07-16 17:10:00,
2013-07-16 12:15:00,89.8,70.9,30.23,SSW,212,5.8,5.8,54,0.00,BKN,,0.00,0.0,WeatherDisplay:10.37,2013-07-16 17:15:00,
2013-07-16 12:20:00,90.1,70.7,30.23,SW,214,6.9,6.9,53,0.00,BKN,,0.00,0.0,WeatherDisplay:10.37,2013-07-16 17:20:00,
2013-07-16 12:25:00,90.1,70.7,30.23,SW,222,5.8,5.8,53,0.00,BKN,,0.00,0.0,WeatherDisplay:10.37,2013-07-16 17:25:00,
2013-07-16 12:30:00,90.5,71.0,30.23,SSW,194,8.1,8.1,53,0.00,BKN,,0.00,0.0,WeatherDisplay:10.37,2013-07-16 17:30:00,
2013-07-16 12:35:00,90.3,70.3,30.23,SW,223,8.1,8.1,52,0.00,BKN,,0.00,0.0,WeatherDisplay:10.37,2013-07-16 17:35:00,
2013-07-16 12:40:00,90.5,70.5,30.23,SSW,196,5.8,5.8,52,0.00,BKN,,0.00,0.0,WeatherDisplay:10.37,2013-07-16 17:40:00,
2013-07-16 12:45:00,91.4,71.3,30.23,SSW,194,6.9,6.9,52,0.00,BKN,,0.00,0.0,WeatherDisplay:10.37,2013-07-16 17:45:00,
2013-07-16 12:50:00,92.1,71.4,30.23,WSW,238,5.8,5.8,51,0.00,BKN,,0.00,0.0,WeatherDisplay:10.37,2013-07-16 17:50:00,
2013-07-16 12:55:00,92.8,70.9,30.23,SW,220,6.9,6.9,49,0.00,SCT,,0.00,0.0,WeatherDisplay:10.37,2013-07-16 17:55:00,
2013-07-16 13:00:00,93.2,70.6,30.23,SW,228,6.9,6.9,48,0.00,SCT,,0.00,0.0,WeatherDisplay:10.37,2013-07-16 18:00:00,
2013-07-16 13:05:00,92.1,71.4,30.23,SW,215,3.5,3.5,51,0.00,SCT,,0.00,0.0,WeatherDisplay:10.37,2013-07-16 18:05:00,
2013-07-16 13:10:00,90.7,70.1,30.23,North,6,4.6,4.6,51,0.00,SCT,,0.00,0.0,WeatherDisplay:10.37,2013-07-16 18:10:00,
2013-07-16 13:15:00,89.8,69.8,30.23,WSW,237,3.5,3.5,52,0.00,SCT,,0.00,0.0,WeatherDisplay:10.37,2013-07-16 18:15:00,
2013-07-16 13:20:00,89.4,70.0,30.23,NNW,343,4.6,4.6,53,0.00,SCT,,0.00,0.0,WeatherDisplay:10.37,2013-07-16 18:20:00,
2013-07-16 13:25:00,88.7,69.9,30.23,NNW,330,3.5,0.0,54,0.00,SCT,,0.00,0.0,WeatherDisplay:10.37,2013-07-16 18:25:00,
2013-07-16 13:30:00,88.7,69.9,30.23,North,353,3.5,3.5,54,0.00,SCT,,0.00,0.0,WeatherDisplay:10.37,2013-07-16 18:30:00,
2013-07-16 13:35:00,88.9,70.1,30.23,North,7,0.0,0.0,54,0.00,SCT,,0.00,0.0,WeatherDisplay:10.37,2013-07-16 18:35:00,
2013-07-16 13:40:00,88.3,69.6,30.23,SW,216,8.1,8.1,54,0.00,SCT,,0.00,0.0,WeatherDisplay:10.37,2013-07-16 18:40:00,
2013-07-16 13:45:00,87.8,69.1,30.23,SSW,197,4.6,4.6,54,0.00,BKN,,0.00,0.0,WeatherDisplay:10.37,2013-07-16 18:45:00,
2013-07-16 13:50:00,87.6,69.5,30.23,SSE,156,4.6,4.6,55,0.00,BKN,,0.00,0.0,WeatherDisplay:10.37,2013-07-16 18:50:00,
2013-07-16 13:55:00,88.9,70.6,30.23,WNW,296,3.5,3.6,55,0.00,BKN,,0.00,0.0,WeatherDisplay:10.37,2013-07-16 18:55:00,
2013-07-16 14:00:00,89.8,70.4,30.23,SSW,208,6.9,6.9,53,0.00,BKN,,0.00,0.0,WeatherDisplay:10.37,2013-07-16 19:00:00,
2013-07-16 14:05:00,89.4,70.0,30.23,SW,236,5.8,5.8,53,0.00,BKN,,0.00,0.0,WeatherDisplay:10.37,2013-07-16 19:05:00,
2013-07-16 14:10:00,89.2,69.9,30.23,SSW,212,8.1,8.1,53,0.00,BKN,,0.00,0.0,WeatherDisplay:10.37,2013-07-16 19:10:00,
2013-07-16 14:15:00,88.7,69.4,30.23,WSW,250,5.8,5.8,53,0.00,BKN,,0.00,0.0,WeatherDisplay:10.37,2013-07-16 19:15:00,
2013-07-16 14:20:00,88.7,69.9,30.23,SE,145,3.5,3.5,54,0.00,BKN,,0.00,0.0,WeatherDisplay:10.37,2013-07-16 19:20:00,
2013-07-16 14:25:00,89.4,70.0,30.23,South,183,10.4,10.4,53,0.00,BKN,,0.00,0.0,WeatherDisplay:10.37,2013-07-16 19:25:00,
2013-07-16 14:30:00,89.1,69.7,30.23,South,186,6.2,0.0,53,0.00,BKN,,0.00,0.0,WeatherDisplay:10.37,2013-07-16 19:30:00,
2013-07-16 14:35:00,88.7,69.9,30.23,SW,221,5.8,5.8,54,0.00,BKN,,0.00,0.0,WeatherDisplay:10.37,2013-07-16 19:35:00,
2013-07-16 14:40:00,88.9,70.1,30.23,SW,230,3.5,3.5,54,0.00,BKN,,0.00,0.0,WeatherDisplay:10.37,2013-07-16 19:40:00,
2013-07-16 14:45:00,89.8,70.4,30.23,SSW,211,6.9,6.9,53,0.00,BKN,,0.00,0.0,WeatherDisplay:10.37,2013-07-16 19:45:00,
2013-07-16 14:50:00,91.6,71.5,30.23,SSW,210,5.7,5.7,52,0.00,BKN,,0.00,0.0,WeatherDisplay:10.37,2013-07-16 19:50:00,
2013-07-16 14:55:00,92.3,71.0,30.23,ENE,57,5.8,0.0,50,0.00,SCT,,0.00,0.0,WeatherDisplay:10.37,2013-07-16 19:55:00,
2013-07-16 15:00:00,91.4,70.7,30.23,SW,223,4.6,4.6,51,0.00,SCT,,0.00,0.0,WeatherDisplay:10.37,2013-07-16 20:00:00,
2013-07-16 15:05:00,90.3,70.3,30.23,WSW,240,5.8,5.8,52,0.00,SCT,,0.00,0.0,WeatherDisplay:10.37,2013-07-16 20:05:00,
2013-07-16 15:10:00,89.6,70.2,30.23,SSW,197,5.8,5.8,53,0.00,SCT,,0.00,0.0,WeatherDisplay:10.37,2013-07-16 20:10:00,
2013-07-16 15:15:00,89.2,69.9,30.23,SSW,211,6.9,6.9,53,0.00,SCT,,0.00,0.0,WeatherDisplay:10.37,2013-07-16 20:15:00,
2013-07-16 15:19:00,89.4,69.5,30.23,SSW,200,6.9,6.9,52,0.00,SCT,,0.00,0.0,WeatherDisplay:10.37,2013-07-16 20:19:00,
2013-07-16 15:24:00,89.8,69.8,30.23,South,172,5.8,5.8,52,0.00,SCT,,0.00,0.0,WeatherDisplay:10.37,2013-07-16 20:24:00,
2013-07-16 15:29:00,90.0,70.0,30.23,SSW,206,4.6,4.6,52,0.00,SCT,,0.00,0.0,WeatherDisplay:10.37,2013-07-16 20:29:00,
2013-07-16 15:34:00,90.3,70.9,30.23,SSW,197,6.9,6.9,53,0.00,SCT,,0.00,0.0,WeatherDisplay:10.37,2013-07-16 20:34:00,
2013-07-16 15:39:00,90.3,70.9,30.23,South,172,5.8,5.8,53,0.00,SCT,,0.00,0.0,WeatherDisplay:10.37,2013-07-16 20:39:00,
2013-07-16 15:44:00,90.3,70.9,30.23,WSW,248,8.1,8.1,53,0.00,SCT,,0.00,0.0,WeatherDisplay:10.37,2013-07-16 20:44:00,
2013-07-16 15:49:00,90.0,70.5,30.23,SSW,197,9.2,9.2,53,0.00,SCT,,0.00,0.0,WeatherDisplay:10.37,2013-07-16 20:49:00,
2013-07-16 15:54:00,90.0,70.5,30.23,SW,233,5.8,5.8,53,0.00,SCT,,0.00,0.0,WeatherDisplay:10.37,2013-07-16 20:54:00,
2013-07-16 15:59:00,90.0,70.5,30.20,SSW,208,5.8,5.8,53,0.00,SCT,,0.00,0.0,WeatherDisplay:10.37,2013-07-16 20:59:00,
2013-07-16 16:04:00,90.1,70.1,30.20,WSW,237,9.2,9.2,52,0.00,SCT,,0.00,0.0,WeatherDisplay:10.37,2013-07-16 21:04:00,
2013-07-16 16:09:00,90.3,70.3,30.20,South,184,9.2,9.2,52,0.00,SCT,,0.00,0.0,WeatherDisplay:10.37,2013-07-16 21:09:00,
2013-07-16 16:14:00,90.7,70.6,30.20,SSE,165,5.8,5.8,52,0.00,SCT,,0.00,0.0,WeatherDisplay:10.37,2013-07-16 21:14:00,
2013-07-16 16:19:00,90.7,70.1,30.20,SW,223,8.1,8.1,51,0.00,SCT,,0.00,0.0,WeatherDisplay:10.37,2013-07-16 21:19:00,
2013-07-16 16:24:00,90.5,69.9,30.20,SSW,198,6.9,6.9,51,0.00,SCT,,0.00,0.0,WeatherDisplay:10.37,2013-07-16 21:24:00,
2013-07-16 16:29:00,90.5,70.5,30.20,WSW,242,9.2,9.2,52,0.00,SCT,,0.00,0.0,WeatherDisplay:10.37,2013-07-16 21:29:00,
2013-07-16 16:34:00,90.3,69.7,30.20,SW,218,8.1,8.1,51,0.00,CLR,,0.00,0.0,WeatherDisplay:10.37,2013-07-16 21:34:00,
2013-07-16 16:39:00,90.3,70.3,30.20,SSW,199,10.4,10.4,52,0.00,CLR,,0.00,0.0,WeatherDisplay:10.37,2013-07-16 21:39:00,
2013-07-16 16:44:00,90.5,70.5,30.20,WSW,237,4.6,4.6,52,0.00,CLR,,0.00,0.0,WeatherDisplay:10.37,2013-07-16 21:44:00,
2013-07-16 16:49:00,90.5,70.5,30.20,SW,218,5.8,5.8,52,0.00,CLR,,0.00,0.0,WeatherDisplay:10.37,2013-07-16 21:49:00,
2013-07-16 16:54:00,90.3,69.7,30.20,West,270,11.5,11.5,51,0.00,CLR,,0.00,0.0,WeatherDisplay:10.37,2013-07-16 21:54:00,
2013-07-16 16:59:00,90.3,69.7,30.20,WNW,286,9.2,9.2,51,0.00,CLR,,0.00,0.0,WeatherDisplay:10.37,2013-07-16 21:59:00,
2013-07-16 17:04:00,90.7,70.6,30.20,SSW,209,9.2,9.2,52,0.00,SCT,,0.00,0.0,WeatherDisplay:10.37,2013-07-16 22:04:00,
2013-07-16 17:09:00,91.0,71.0,30.20,West,259,6.9,6.9,52,0.00,SCT,,0.00,0.0,WeatherDisplay:10.37,2013-07-16 22:09:00,
2013-07-16 17:14:00,91.0,70.4,30.20,WSW,255,13.8,13.8,51,0.00,SCT,,0.00,0.0,WeatherDisplay:10.37,2013-07-16 22:14:00,
2013-07-16 17:19:00,91.0,71.0,30.20,SSW,193,8.1,8.1,52,0.00,SCT,,0.00,0.0,WeatherDisplay:10.37,2013-07-16 22:19:00,
2013-07-16 17:26:00,90.9,70.8,30.20,North,0,9.2,0.0,52,0.00,CLR,,0.00,0.0,WeatherDisplay:10.37,2013-07-16 22:26:00,
2013-07-16 17:31:00,91.0,71.0,30.20,SSW,199,6.9,6.9,52,0.00,SCT,,0.00,0.0,WeatherDisplay:10.37,2013-07-16 22:31:00,
2013-07-16 17:36:00,91.0,71.0,30.20,SW,217,5.8,5.8,52,0.00,SCT,,0.00,0.0,WeatherDisplay:10.37,2013-07-16 22:36:00,
2013-07-16 17:41:00,90.5,69.9,30.20,SSW,198,9.2,9.2,51,0.00,SCT,,0.00,0.0,WeatherDisplay:10.37,2013-07-16 22:41:00,
2013-07-16 17:46:00,90.3,70.3,30.20,SSW,202,6.9,6.9,52,0.00,SCT,,0.00,0.0,WeatherDisplay:10.37,2013-07-16 22:46:00,
2013-07-16 17:51:00,90.5,70.5,30.20,SSW,212,10.4,10.4,52,0.00,SCT,,0.00,0.0,WeatherDisplay:10.37,2013-07-16 22:51:00,
2013-07-16 17:56:00,90.0,68.8,30.20,SW,214,6.9,6.9,50,0.00,SCT,,0.00,0.0,WeatherDisplay:10.37,2013-07-16 22:56:00,
2013-07-16 18:01:00,89.1,69.1,30.20,SW,232,5.8,5.8,52,0.00,SCT,,0.00,0.0,WeatherDisplay:10.37,2013-07-16 23:01:00,
2013-07-16 18:06:00,88.2,68.9,30.20,SSW,196,4.6,4.6,53,0.00,SCT,,0.00,0.0,WeatherDisplay:10.37,2013-07-16 23:06:00,
2013-07-16 18:11:00,87.8,68.5,30.20,SW,230,5.8,5.8,53,0.00,SCT,,0.00,0.0,WeatherDisplay:10.37,2013-07-16 23:11:00,
2013-07-16 18:16:00,87.4,68.8,30.20,SW,231,5.8,5.8,54,0.00,SCT,,0.00,0.0,WeatherDisplay:10.37,2013-07-16 23:16:00,
2013-07-16 18:21:00,86.9,68.8,30.20,SSW,202,5.8,5.8,55,0.00,SCT,,0.00,0.0,WeatherDisplay:10.37,2013-07-16 23:21:00,
2013-07-16 18:26:00,87.1,68.4,30.20,NNW,348,3.5,3.5,54,0.00,SCT,,0.00,0.0,WeatherDisplay:10.37,2013-07-16 23:26:00,
2013-07-16 18:31:00,86.9,68.3,30.20,NNW,340,3.5,3.6,54,0.00,BKN,,0.00,0.0,WeatherDisplay:10.37,2013-07-16 23:31:00,
2013-07-16 18:36:00,86.5,67.9,30.20,NNW,348,3.3,3.3,54,0.00,BKN,,0.00,0.0,WeatherDisplay:10.37,2013-07-16 23:36:00,
2013-07-16 18:41:00,85.8,67.3,30.20,North,7,3.5,3.5,54,0.00,BKN,,0.00,0.0,WeatherDisplay:10.37,2013-07-16 23:41:00,
2013-07-16 18:46:00,85.3,67.3,30.20,North,11,3.5,3.5,55,0.00,BKN,,0.00,0.0,WeatherDisplay:10.37,2013-07-16 23:46:00,
2013-07-16 18:51:00,84.9,66.9,30.20,North,357,0.0,0.0,55,0.00,-RA,,0.00,0.0,WeatherDisplay:10.37,2013-07-16 23:51:00,
2013-07-16 18:56:00,85.1,67.1,30.20,SW,221,4.6,4.6,55,0.00,-RA,,0.00,0.0,WeatherDisplay:10.37,2013-07-16 23:56:00,
2013-07-16 19:01:00,85.3,67.3,30.20,SSW,203,0.0,0.0,55,0.00,-RA,,0.00,0.0,WeatherDisplay:10.37,2013-07-17 00:01:00,
2013-07-16 19:06:00,85.3,67.3,30.20,SSW,210,4.6,4.6,55,0.00,-RA,,0.00,0.0,WeatherDisplay:10.37,2013-07-17 00:06:00,
2013-07-16 19:11:00,85.3,67.3,30.20,WSW,245,0.0,0.0,55,0.00,BKN,,0.00,0.0,WeatherDisplay:10.37,2013-07-17 00:11:00,
2013-07-16 19:16:00,85.1,67.1,30.20,SSW,204,2.3,0.0,55,0.00,BKN,,0.00,0.0,WeatherDisplay:10.37,2013-07-17 00:16:00,
2013-07-16 19:21:00,85.1,67.1,30.20,SSW,204,0.0,0.0,55,0.00,BKN,,0.00,0.0,WeatherDisplay:10.37,2013-07-17 00:21:00,
2013-07-16 19:26:00,84.7,66.8,30.20,SSW,197,3.5,3.5,55,0.00,BKN,,0.00,0.0,WeatherDisplay:10.37,2013-07-17 00:26:00,
2013-07-16 19:31:00,84.6,67.1,30.20,South,184,2.3,0.0,56,0.00,BKN,,0.00,0.0,WeatherDisplay:10.37,2013-07-17 00:31:00,
2013-07-16 19:36:00,84.2,66.8,30.20,SSW,201,5.8,5.8,56,0.00,SCT,,0.00,0.0,WeatherDisplay:10.37,2013-07-17 00:36:00,
2013-07-16 19:41:00,83.8,67.0,30.20,ENE,75,0.0,0.0,57,0.00,CLR,,0.00,0.0,WeatherDisplay:10.37,2013-07-17 00:41:00,
2013-07-16 19:46:00,83.5,66.6,30.20,SSW,196,3.5,3.5,57,0.00,CLR,,0.00,0.0,WeatherDisplay:10.37,2013-07-17 00:46:00,
2013-07-16 19:51:00,83.1,66.8,30.20,SSW,196,0.0,0.0,58,0.00,CLR,,0.00,0.0,WeatherDisplay:10.37,2013-07-17 00:51:00,
2013-07-16 19:56:00,82.6,66.3,30.20,SSW,196,0.0,0.0,58,0.00,CLR,,0.00,0.0,WeatherDisplay:10.37,2013-07-17 00:56:00,
2013-07-16 20:01:00,82.2,66.0,30.20,SSW,196,0.0,0.0,58,0.00,CLR,,0.00,0.0,WeatherDisplay:10.37,2013-07-17 01:01:00,
2013-07-16 20:06:00,81.9,66.6,30.20,SSW,196,0.0,0.0,60,0.00,CLR,,0.00,0.0,WeatherDisplay:10.37,2013-07-17 01:06:00,
2013-07-16 20:11:00,81.3,67.1,30.20,SSW,196,0.0,0.0,62,0.00,CLR,,0.00,0.0,WeatherDisplay:10.37,2013-07-17 01:11:00,
2013-07-16 20:16:00,81.0,67.2,30.20,SSW,196,0.0,0.0,63,0.00,CLR,,0.00,0.0,WeatherDisplay:10.37,2013-07-17 01:16:00,
2013-07-16 20:21:00,80.6,67.3,30.20,SSW,196,0.0,0.0,64,0.00,CLR,,0.00,0.0,WeatherDisplay:10.37,2013-07-17 01:21:00,
2013-07-16 20:26:00,80.2,67.4,30.20,SSW,196,0.0,0.0,65,0.00,CLR,,0.00,0.0,WeatherDisplay:10.37,2013-07-17 01:26:00,
2013-07-16 20:31:00,79.9,67.5,30.20,SSW,196,0.0,0.0,66,0.00,CLR,,0.00,0.0,WeatherDisplay:10.37,2013-07-17 01:31:00,
2013-07-16 20:36:00,79.7,67.8,30.20,SSW,196,0.0,0.0,67,0.00,CLR,,0.00,0.0,WeatherDisplay:10.37,2013-07-17 01:36:00,
2013-07-16 20:41:00,79.3,67.4,30.20,SSW,196,0.0,0.0,67,0.00,CLR,,0.00,0.0,WeatherDisplay:10.37,2013-07-17 01:41:00,
2013-07-16 20:46:00,79.0,67.5,30.20,SSW,196,0.0,0.0,68,0.00,CLR,,0.00,0.0,WeatherDisplay:10.37,2013-07-17 01:46:00,
2013-07-16 20:51:00,78.8,67.8,30.20,SSW,196,0.0,0.0,69,0.00,CLR,,0.00,0.0,WeatherDisplay:10.37,2013-07-17 01:51:00,
2013-07-16 20:56:00,78.4,67.8,30.20,SSW,196,0.0,0.0,70,0.00,CLR,,0.00,0.0,WeatherDisplay:10.37,2013-07-17 01:56:00,
2013-07-16 21:01:00,77.9,67.3,30.20,SSW,196,0.0,0.0,70,0.00,CLR,,0.00,0.0,WeatherDisplay:10.37,2013-07-17 02:01:00,
2013-07-16 21:06:00,77.7,67.6,30.20,SSW,196,0.0,0.0,71,0.00,CLR,,0.00,0.0,WeatherDisplay:10.37,2013-07-17 02:06:00,
2013-07-16 21:11:00,77.5,67.8,30.20,SSW,196,0.0,0.0,72,0.00,CLR,,0.00,0.0,WeatherDisplay:10.37,2013-07-17 02:11:00,
2013-07-16 21:16:00,77.2,67.9,30.20,SSW,196,0.0,0.0,73,0.00,CLR,,0.00,0.0,WeatherDisplay:10.37,2013-07-17 02:16:00,
2013-07-16 21:21:00,77.0,68.1,30.20,SSW,196,0.0,0.0,74,0.00,CLR,,0.00,0.0,WeatherDisplay:10.37,2013-07-17 02:21:00,
2013-07-16 21:26:00,76.8,68.3,30.20,SSW,196,0.0,0.0,75,0.00,CLR,,0.00,0.0,WeatherDisplay:10.37,2013-07-17 02:26:00,
2013-07-16 21:31:00,76.5,68.7,30.20,SSW,196,0.0,0.0,77,0.00,CLR,,0.00,0.0,WeatherDisplay:10.37,2013-07-17 02:31:00,
2013-07-16 21:36:00,76.3,68.5,30.20,SSW,196,0.0,0.0,77,0.00,CLR,,0.00,0.0,WeatherDisplay:10.37,2013-07-17 02:36:00,
2013-07-16 21:41:00,76.1,68.7,30.20,SSW,196,0.0,0.0,78,0.00,CLR,,0.00,0.0,WeatherDisplay:10.37,2013-07-17 02:41:00,
2013-07-16 21:46:00,75.9,68.6,30.23,SSW,196,0.0,0.0,78,0.00,CLR,,0.00,0.0,WeatherDisplay:10.37,2013-07-17 02:46:00,
2013-07-16 21:51:00,75.7,68.8,30.23,SSW,196,0.0,0.0,79,0.00,CLR,,0.00,0.0,WeatherDisplay:10.37,2013-07-17 02:51:00,
2013-07-16 21:56:00,75.6,69.0,30.23,SSW,196,0.0,0.0,80,0.00,CLR,,0.00,0.0,WeatherDisplay:10.37,2013-07-17 02:56:00,
2013-07-16 22:01:00,75.4,69.1,30.23,SSW,196,0.0,0.0,81,0.00,CLR,,0.00,0.0,WeatherDisplay:10.37,2013-07-17 03:01:00,
2013-07-16 22:06:00,75.4,69.5,30.23,SSW,196,2.3,0.0,82,0.00,CLR,,0.00,0.0,WeatherDisplay:10.37,2013-07-17 03:06:00,
2013-07-16 22:11:00,75.2,69.3,30.23,SSW,196,0.0,0.0,82,0.00,CLR,,0.00,0.0,WeatherDisplay:10.37,2013-07-17 03:11:00,
2013-07-16 22:16:00,75.0,69.5,30.23,SSW,196,0.0,0.0,83,0.00,CLR,,0.00,0.0,WeatherDisplay:10.37,2013-07-17 03:16:00,
2013-07-16 22:21:00,74.8,69.7,30.23,SSW,196,0.0,0.0,84,0.00,CLR,,0.00,0.0,WeatherDisplay:10.37,2013-07-17 03:21:00,
2013-07-16 22:26:00,74.8,70.0,30.23,SSW,196,0.0,0.0,85,0.00,CLR,,0.00,0.0,WeatherDisplay:10.37,2013-07-17 03:26:00,
2013-07-16 22:31:00,74.7,69.8,30.23,SSW,196,0.0,0.0,85,0.00,CLR,,0.00,0.0,WeatherDisplay:10.37,2013-07-17 03:31:00,
2013-07-16 22:36:00,74.7,70.5,30.23,SSW,204,0.0,0.0,87,0.00,CLR,,0.00,0.0,WeatherDisplay:10.37,2013-07-17 03:36:00,
2013-07-16 22:41:00,74.5,70.4,30.23,SW,221,0.0,0.0,87,0.00,CLR,,0.00,0.0,WeatherDisplay:10.37,2013-07-17 03:41:00,
2013-07-16 22:46:00,74.5,70.7,30.23,SW,221,0.0,0.0,88,0.00,CLR,,0.00,0.0,WeatherDisplay:10.37,2013-07-17 03:46:00,
2013-07-16 22:51:00,74.3,70.5,30.23,SW,221,0.0,0.0,88,0.00,CLR,,0.00,0.0,WeatherDisplay:10.37,2013-07-17 03:51:00,
2013-07-16 22:56:00,74.1,70.7,30.23,SW,221,0.0,0.0,89,0.00,CLR,,0.00,0.0,WeatherDisplay:10.37,2013-07-17 03:56:00,
2013-07-16 23:01:00,73.9,70.5,30.23,SW,221,0.0,0.0,89,0.00,CLR,,0.00,0.0,WeatherDisplay:10.37,2013-07-17 04:01:00,
2013-07-16 23:06:00,73.8,70.6,30.23,SW,221,0.0,0.0,90,0.00,CLR,,0.00,0.0,WeatherDisplay:10.37,2013-07-17 04:06:00,
2013-07-16 23:11:00,73.6,70.5,30.23,SW,221,0.0,0.0,90,0.00,CLR,,0.00,0.0,WeatherDisplay:10.37,2013-07-17 04:11:00,
2013-07-16 23:16:00,73.4,70.6,30.23,SW,221,0.0,0.0,91,0.00,CLR,,0.00,0.0,WeatherDisplay:10.37,2013-07-17 04:16:00,
2013-07-16 23:21:00,73.2,70.4,30.23,SW,221,0.0,0.0,91,0.00,CLR,,0.00,0.0,WeatherDisplay:10.37,2013-07-17 04:21:00,
2013-07-16 23:26:00,73.0,70.9,30.23,SW,221,0.0,0.0,93,0.00,CLR,,0.00,0.0,WeatherDisplay:10.37,2013-07-17 04:26:00,
2013-07-16 23:31:00,72.9,70.7,30.23,SW,221,0.0,0.0,93,0.00,CLR,,0.00,0.0,WeatherDisplay:10.37,2013-07-17 04:31:00,
2013-07-16 23:36:00,72.9,71.0,30.23,SW,221,0.0,0.0,94,0.00,CLR,,0.00,0.0,WeatherDisplay:10.37,2013-07-17 04:36:00,
2013-07-16 23:41:00,72.7,70.9,30.23,SW,221,0.0,0.0,94,0.00,CLR,,0.00,0.0,WeatherDisplay:10.37,2013-07-17 04:41:00,
2013-07-16 23:46:00,72.5,71.0,30.23,SW,221,0.0,0.0,95,0.00,CLR,,0.00,0.0,WeatherDisplay:10.37,2013-07-17 04:46:00,
2013-07-16 23:51:00,72.3,70.8,30.23,SW,221,0.0,0.0,95,0.00,CLR,,0.00,0.0,WeatherDisplay:10.37,2013-07-17 04:51:00,
2013-07-16 23:55:00,72.3,71.1,30.23,SW,221,0.0,0.0,96,0.00,CLR,,0.00,0.0,WeatherDisplay:10.37,2013-07-17 04:55:00,
2013-07-16 23:59:00,72.1,70.9,30.23,SW,221,0.0,0.0,96,0.00,CLR,,0.00,0.0,WeatherDisplay:10.37,2013-07-17 04:59:00,